• Em Portugal
  • Lista de países
  • Para 7 dias
  • Temperatura da água
  • Mapas de satélite
  • Mapa do tempo
  • Widgets de tempo
  • user-avatar
    Iniciar Sessão

    Previsão horária em Taungdżi

    Hoje, 23 Outubro, Segunda-feira

    Tempo Temperatura Precipitação Vento Pressão Humidade
    00:00 +18°C° 0 mm 1 m/s 648 mmHg 95%
    01:00 +18°C° 0 mm 1 m/s 648 mmHg 95%
    02:00 +18°C° 0 mm 1 m/s 648 mmHg 95%
    03:00 +18°C° 0 mm 1 m/s 647 mmHg 95%
    04:00 +18°C° 0 mm 1 m/s 648 mmHg 95%
    05:00 +18°C° 0 mm 1 m/s 648 mmHg 95%
    06:00 +18°C° 0 mm 1 m/s 648 mmHg 94%
    07:00 +21°C° 0 mm 1 m/s 649 mmHg 86%
    08:00 +23°C° 0 mm 1 m/s 650 mmHg 79%
    09:00 +25°C° 0 mm 1 m/s 651 mmHg 71%
    10:00 +25°C° 0,2 mm 1 m/s 651 mmHg 69%
    11:00 +26°C° 0,2 mm 2 m/s 650 mmHg 68%
    12:00 +26°C° 0,2 mm 2 m/s 650 mmHg 67%
    13:00 +26°C° 0,4 mm 2 m/s 650 mmHg 69%
    14:00 +26°C° 0,4 mm 2 m/s 649 mmHg 71%
    15:00 +26°C° 0,4 mm 1 m/s 648 mmHg 73%
    16:00 +24°C° 0,2 mm 1 m/s 648 mmHg 80%
    17:00 +22°C° 0,2 mm 1 m/s 648 mmHg 86%
    18:00 +19°C° 0,2 mm 0 m/s 648 mmHg 92%
    19:00 +18°C° 0 mm 0 m/s 648 mmHg 94%
    20:00 +18°C° 0 mm 0 m/s 649 mmHg 95%
    21:00 +18°C° 0 mm 0 m/s 649 mmHg 96%
    22:00 +17°C° 0,2 mm 0 m/s 649 mmHg 96%
    23:00 +17°C° 0,2 mm 0 m/s 649 mmHg 96%

    Amanhã, 24 Outubro, Terça-feira

    Tempo Temperatura Precipitação Vento Pressão Humidade
    00:00 +17°C° 0,2 mm 0 m/s 649 mmHg 97%
    01:00 +17°C° 0,3 mm 0 m/s 649 mmHg 97%
    02:00 +17°C° 0,3 mm 0 m/s 649 mmHg 97%
    03:00 +16°C° 0,3 mm 0 m/s 649 mmHg 97%
    04:00 +16°C° 0,2 mm 0 m/s 649 mmHg 97%
    05:00 +16°C° 0,2 mm 0 m/s 649 mmHg 97%
    06:00 +16°C° 0,2 mm 0 m/s 650 mmHg 97%
    07:00 +21°C° 0,3 mm 1 m/s 651 mmHg 90%
    08:00 +23°C° 0,3 mm 1 m/s 651 mmHg 83%
    09:00 +25°C° 0,3 mm 1 m/s 652 mmHg 76%
    10:00 +25°C° 0,5 mm 1 m/s 652 mmHg 74%
    11:00 +26°C° 0,5 mm 2 m/s 652 mmHg 72%
    12:00 +26°C° 0,5 mm 2 m/s 652 mmHg 71%
    13:00 +26°C° 0,8 mm 2 m/s 651 mmHg 73%
    14:00 +25°C° 0,8 mm 1 m/s 650 mmHg 76%
    15:00 +25°C° 0,8 mm 1 m/s 650 mmHg 78%
    16:00 +23°C° 0,9 mm 1 m/s 650 mmHg 83%
    17:00 +22°C° 0,9 mm 1 m/s 650 mmHg 88%
    18:00 +20°C° 0,9 mm 1 m/s 649 mmHg 93%
    19:00 +20°C° 0,5 mm 1 m/s 650 mmHg 94%
    20:00 +20°C° 0,5 mm 1 m/s 650 mmHg 94%
    21:00 +19°C° 0,5 mm 1 m/s 651 mmHg 95%
    22:00 +19°C° 0,2 mm 1 m/s 651 mmHg 95%
    23:00 +19°C° 0,2 mm 1 m/s 651 mmHg 95%

    Depois de amanhã, 25 Outubro, Quarta-feira

    Tempo Temperatura Precipitação Vento Pressão Humidade
    00:00 +19°C° 0,2 mm 1 m/s 650 mmHg 95%
    01:00 +19°C° 0,2 mm 1 m/s 650 mmHg 95%
    02:00 +19°C° 0,2 mm 1 m/s 650 mmHg 95%
    03:00 +17°C° 0,2 mm 0 m/s 650 mmHg 95%
    04:00 +17°C° 0,2 mm 0 m/s 650 mmHg 95%
    05:00 +17°C° 0,2 mm 0 m/s 651 mmHg 95%
    06:00 +17°C° 0,2 mm 0 m/s 651 mmHg 95%
    07:00 +19°C° 0,4 mm 0 m/s 652 mmHg 91%
    08:00 +22°C° 0,4 mm 1 m/s 653 mmHg 87%
    09:00 +24°C° 0,4 mm 1 m/s 654 mmHg 83%
    10:00 +24°C° 1 mm 1 m/s 653 mmHg 84%
    11:00 +24°C° 1 mm 1 m/s 653 mmHg 84%
    12:00 +24°C° 1 mm 1 m/s 652 mmHg 84%
    13:00 +24°C° 1,6 mm 1 m/s 651 mmHg 86%
    14:00 +24°C° 1,6 mm 1 m/s 651 mmHg 87%
    15:00 +23°C° 1,6 mm 1 m/s 650 mmHg 88%
    16:00 +22°C° 1,7 mm 1 m/s 650 mmHg 90%
    17:00 +19°C° 1,7 mm 0 m/s 650 mmHg 92%
    18:00 +18°C° 1,7 mm 0 m/s 650 mmHg 94%
    19:00 +18°C° 0,5 mm 0 m/s 650 mmHg 94%
    20:00 +18°C° 0,5 mm 0 m/s 651 mmHg 94%
    21:00 +17°C° 0,5 mm 0 m/s 651 mmHg 94%
    22:00 +17°C° 0,2 mm 0 m/s 651 mmHg 95%
    23:00 +17°C° 0,2 mm 0 m/s 651 mmHg 95%

    26 Outubro, Quinta-feira

    Tempo Temperatura Precipitação Vento Pressão Humidade
    00:00 +17°C° 0,2 mm 0 m/s 650 mmHg 95%
    01:00 +17°C° 0,3 mm 0 m/s 650 mmHg 95%
    02:00 +16°C° 0,3 mm 0 m/s 650 mmHg 96%
    03:00 +16°C° 0,3 mm 0 m/s 649 mmHg 96%
    04:00 +16°C° 0,2 mm 0 m/s 650 mmHg 96%
    05:00 +16°C° 0,2 mm 0 m/s 650 mmHg 96%
    06:00 +16°C° 0,2 mm 0 m/s 651 mmHg 96%
    07:00 +18°C° 0,3 mm 0 m/s 652 mmHg 90%
    08:00 +20°C° 0,3 mm 0 m/s 653 mmHg 85%
    09:00 +22°C° 0,3 mm 0 m/s 654 mmHg 79%
    10:00 +25°C° 0,6 mm 1 m/s 653 mmHg 77%
    11:00 +26°C° 0,6 mm 1 m/s 652 mmHg 75%
    12:00 +26°C° 0,6 mm 1 m/s 652 mmHg 72%
    13:00 +26°C° 1 mm 1 m/s 651 mmHg 74%
    14:00 +25°C° 1 mm 1 m/s 650 mmHg 75%
    15:00 +25°C° 1 mm 1 m/s 650 mmHg 76%
    16:00 +23°C° 0,7 mm 1 m/s 650 mmHg 81%
    17:00 +19°C° 0,7 mm 0 m/s 649 mmHg 87%
    18:00 +18°C° 0,7 mm 0 m/s 649 mmHg 92%
    19:00 +17°C° 0,1 mm 0 m/s 649 mmHg 93%
    20:00 +17°C° 0,1 mm 0 m/s 650 mmHg 94%
    21:00 +17°C° 0,1 mm 0 m/s 650 mmHg 95%
    22:00 +17°C° 0 mm 0 m/s 650 mmHg 95%
    23:00 +16°C° 0 mm 0 m/s 650 mmHg 96%

    27 Outubro, Sexta-feira

    Tempo Temperatura Precipitação Vento Pressão Humidade
    00:00 +16°C° 0 mm 0 m/s 649 mmHg 96%
    01:00 +16°C° 0 mm 0 m/s 649 mmHg 96%
    02:00 +16°C° 0 mm 0 m/s 649 mmHg 96%
    03:00 +16°C° 0 mm 0 m/s 649 mmHg 96%
    04:00 +16°C° 0 mm 0 m/s 649 mmHg 96%
    05:00 +16°C° 0 mm 0 m/s 649 mmHg 96%
    06:00 +16°C° 0 mm 0 m/s 650 mmHg 95%
    07:00 +18°C° 0 mm 0 m/s 651 mmHg 88%
    08:00 +21°C° 0 mm 0 m/s 652 mmHg 81%
    09:00 +23°C° 0 mm 0 m/s 653 mmHg 73%
    10:00 +24°C° 0,2 mm 0 m/s 652 mmHg 70%
    11:00 +25°C° 0,2 mm 0 m/s 652 mmHg 67%
    12:00 +26°C° 0,2 mm 0 m/s 651 mmHg 64%
    13:00 +27°C° 0,4 mm 1 m/s 650 mmHg 66%
    14:00 +26°C° 0,4 mm 1 m/s 650 mmHg 68%
    15:00 +26°C° 0,4 mm 1 m/s 649 mmHg 71%
    16:00 +24°C° 0,3 mm 1 m/s 649 mmHg 77%
    17:00 +20°C° 0,3 mm 0 m/s 648 mmHg 84%
    18:00 +18°C° 0,3 mm 0 m/s 648 mmHg 91%
    19:00 +18°C° 0 mm 0 m/s 649 mmHg 92%
    20:00 +17°C° 0 mm 0 m/s 649 mmHg 93%
    21:00 +17°C° 0 mm 0 m/s 649 mmHg 94%
    22:00 +17°C° 0 mm 0 m/s 649 mmHg 94%
    23:00 +16°C° 0 mm 0 m/s 649 mmHg 94%

    28 Outubro, Sábado

    Tempo Temperatura Precipitação Vento Pressão Humidade
    00:00 +16°C° 0 mm 0 m/s 649 mmHg 95%
    01:00 +16°C° 0 mm 0 m/s 649 mmHg 95%
    02:00 +16°C° 0 mm 0 m/s 648 mmHg 95%
    03:00 +16°C° 0 mm 0 m/s 648 mmHg 95%
    04:00 +16°C° 0 mm 0 m/s 649 mmHg 95%
    05:00 +16°C° 0 mm 0 m/s 649 mmHg 95%
    06:00 +16°C° 0 mm 0 m/s 649 mmHg 95%
    07:00 +18°C° 0 mm 0 m/s 651 mmHg 88%
    08:00 +21°C° 0 mm 0 m/s 652 mmHg 80%
    09:00 +23°C° 0 mm 0 m/s 653 mmHg 72%
    10:00 +24°C° 0,3 mm 0 m/s 652 mmHg 70%
    11:00 +25°C° 0,3 mm 0 m/s 652 mmHg 68%
    12:00 +25°C° 0,3 mm 0 m/s 651 mmHg 66%
    13:00 +27°C° 0,5 mm 1 m/s 651 mmHg 68%
    14:00 +26°C° 0,5 mm 1 m/s 650 mmHg 69%
    15:00 +26°C° 0,5 mm 1 m/s 649 mmHg 71%
    16:00 +22°C° 0,4 mm 0 m/s 649 mmHg 77%
    17:00 +20°C° 0,4 mm 0 m/s 649 mmHg 83%
    18:00 +19°C° 0,4 mm 0 m/s 649 mmHg 89%
    19:00 +18°C° 0 mm 0 m/s 649 mmHg 90%
    20:00 +18°C° 0 mm 0 m/s 650 mmHg 91%
    21:00 +17°C° 0 mm 0 m/s 650 mmHg 92%
    22:00 +17°C° 0,4 mm 0 m/s 650 mmHg 92%
    23:00 +17°C° 0,4 mm 0 m/s 650 mmHg 92%

    29 Outubro, Domingo

    Tempo Temperatura Precipitação Vento Pressão Humidade
    00:00 +17°C° 0,4 mm 0 m/s 650 mmHg 93%
    01:00 +17°C° 0,4 mm 0 m/s 649 mmHg 93%
    02:00 +17°C° 0,4 mm 0 m/s 649 mmHg 92%
    03:00 +17°C° 0,4 mm 0 m/s 649 mmHg 92%
    04:00 +17°C° 0,2 mm 0 m/s 650 mmHg 92%
    05:00 +17°C° 0,2 mm 0 m/s 650 mmHg 92%
    06:00 +17°C° 0,2 mm 0 m/s 650 mmHg 92%
    07:00 +19°C° 0,4 mm 0 m/s 651 mmHg 87%
    08:00 +20°C° 0,4 mm 0 m/s 652 mmHg 83%
    09:00 +23°C° 0,4 mm 1 m/s 653 mmHg 79%
    10:00 +24°C° 0,9 mm 1 m/s 652 mmHg 77%
    11:00 +25°C° 0,9 mm 1 m/s 652 mmHg 75%
    12:00 +26°C° 0,9 mm 1 m/s 652 mmHg 73%
    13:00 +25°C° 1,4 mm 1 m/s 651 mmHg 77%
    14:00 +22°C° 1,4 mm 0 m/s 651 mmHg 81%
    15:00 +21°C° 1,4 mm 0 m/s 650 mmHg 86%
    16:00 +20°C° 0,9 mm 0 m/s 650 mmHg 88%
    17:00 +19°C° 0,9 mm 0 m/s 650 mmHg 90%
    18:00 +20°C° 0,9 mm 1 m/s 650 mmHg 92%
    19:00 +20°C° 0,3 mm 1 m/s 651 mmHg 92%
    20:00 +19°C° 0,3 mm 1 m/s 651 mmHg 93%
    21:00 +17°C° 0,3 mm 0 m/s 651 mmHg 93%
    22:00 +19°C° 0,6 mm 1 m/s 651 mmHg 94%
    23:00 +19°C° 0,6 mm 1 m/s 651 mmHg 94%
    Mostrar mais